DateTime,F1_A11,F1_S11,BsB_S11,BsG_S11,BsR_S11,BbsB_S11,BbsG_S11,BbsR_S11,BaB_A11,BaG_A11,BaR_A11,T_S11,U_S11,P_S11,T1_A11
2016-05-14T00:00:00Z,0000380,20000600,,,,,,,,,,26.0,03.8,0671.0,34.6
2016-05-14T00:01:00Z,0000380,20000600,,,,,,,,,,26.0,03.8,0671.0,34.6
2016-05-14T00:02:00Z,0000380,20000600,,,,,,,,,,26.0,03.8,0671.0,34.6
2016-05-14T00:03:00Z,0000380,60000600,,,,,,,,,,26.1,03.8,0671.0,34.6
2016-05-14T00:04:00Z,0000380,40000600,0001.74,0000.55,0000.17,0000.49,-000.13,0000.06,0000.31,-000.05,0000.15,26.1,03.8,0671.8,34.6
2016-05-14T00:05:00Z,0000380,00000600,0001.15,0000.32,0000.62,-000.14,-000.39,0000.14,0000.06,0000.04,-000.04,26.1,03.8,0671.9,34.6
2016-05-14T00:06:00Z,0000380,00000600,0001.40,0000.66,0000.47,-000.17,0000.23,0000.22,0000.23,0000.27,0000.03,26.1,03.9,0671.9,34.6
2016-05-14T00:07:00Z,0000380,00000600,0001.28,0000.90,0000.46,0000.27,0000.06,0000.19,-000.04,-000.13,0000.08,26.1,03.8,0671.9,34.6
2016-05-14T00:08:00Z,0000380,00000600,0001.09,0000.49,0000.55,0000.38,-000.11,0000.17,0000.38,0000.32,0000.15,26.1,03.8,0671.9,34.6
2016-05-14T00:09:00Z,0000380,00000600,0001.40,0000.81,0000.38,0000.33,-000.52,0000.19,-000.24,-000.07,-000.27,26.0,03.8,0671.9,34.6
2016-05-14T00:10:00Z,0000380,00000600,0001.23,0000.99,0001.28,0000.02,0000.03,0000.38,0000.25,0000.25,0000.47,26.0,03.9,0671.9,34.6
2016-05-14T00:11:00Z,0000380,00010600,0001.12,0000.67,0000.41,0000.55,0000.02,0000.02,0000.19,0000.15,-000.27,26.0,03.8,0671.9,34.6
2016-05-14T00:12:00Z,0000380,00000600,0001.60,0000.85,0000.96,0000.31,0000.39,0000.00,-000.12,-000.15,0000.34,26.0,03.8,0672.0,34.6
2016-05-14T00:13:00Z,0000380,00000600,0000.83,0001.33,0000.71,0000.44,-000.22,0000.19,0000.29,0000.25,-000.09,26.0,03.8,0671.9,34.6
2016-05-14T00:14:00Z,0000380,00000600,0000.49,0000.84,0000.53,0000.08,0000.14,-000.03,0000.08,0000.11,0000.12,26.0,03.8,0672.0,34.6
2016-05-14T00:15:00Z,0000380,00000600,0000.73,0000.31,0000.79,-000.08,0000.00,0000.19,0000.01,0000.11,0000.28,26.0,03.9,0672.0,34.6
2016-05-14T00:16:00Z,0000380,00000600,0001.74,0001.21,0000.28,0000.00,0000.02,0000.08,0000.37,0000.23,0000.11,26.0,03.8,0672.0,34.6
2016-05-14T00:17:00Z,0000380,00000600,0001.67,0000.78,0000.73,-000.24,0000.09,0000.27,0000.11,0000.14,-000.22,26.0,03.8,0671.9,34.6
2016-05-14T00:18:00Z,0000380,00000600,0001.21,0000.98,0000.19,0000.52,0000.16,0000.13,0000.00,0000.07,0000.40,26.0,03.9,0671.9,34.6
2016-05-14T00:19:00Z,0000380,00000600,0001.55,0000.88,0000.46,0000.55,0000.64,0000.03,-000.02,0000.09,-000.17,26.1,03.9,0671.9,34.6
2016-05-14T00:20:00Z,0000380,00000600,0001.09,0000.42,0000.73,0000.33,0000.27,0000.16,-000.03,-000.11,0000.16,26.1,03.9,0671.9,34.6
2016-05-14T00:21:00Z,0000380,00000600,-000.02,0000.88,0000.31,-000.05,0000.11,0000.25,0000.28,0000.24,-000.10,26.1,03.9,0671.9,34.6
2016-05-14T00:22:00Z,0000380,00000600,0000.64,0001.48,0000.51,0000.63,0000.06,0000.17,-000.02,0000.11,0000.31,26.1,03.9,0671.9,34.6
2016-05-14T00:23:00Z,0000380,00000600,0001.36,0000.22,0000.80,0000.61,0000.42,0000.33,0000.12,-000.21,-000.25,26.1,03.8,0671.9,34.6
2016-05-14T00:24:00Z,0000380,00000600,0000.67,0000.18,0000.44,0000.72,0000.13,-000.05,0000.05,0000.16,0000.13,26.1,03.9,0671.9,34.6
2016-05-14T00:25:00Z,0000380,00000600,0000.97,0000.16,0000.51,0000.36,0000.02,0000.53,0000.17,0000.03,0000.03,26.1,03.9,0672.0,34.6
2016-05-14T00:26:00Z,0000380,00000600,0000.99,0001.05,0000.30,-000.50,0000.11,0000.00,0000.04,0000.01,0000.28,26.1,03.8,0671.9,34.6
2016-05-14T00:27:00Z,0000380,00000600,0000.62,0001.07,0000.56,-000.20,0000.14,0000.24,0000.45,0000.23,-000.21,26.1,03.9,0671.9,34.6
2016-05-14T00:28:00Z,0000380,00000600,0002.20,0000.49,0000.46,0000.44,0000.16,-000.03,-000.13,0000.27,0000.29,26.1,03.9,0671.9,34.6
2016-05-14T00:29:00Z,0000380,00000600,0001.49,0000.64,0000.44,0000.22,0000.16,0000.02,0000.36,0000.03,0000.16,26.1,03.9,0671.9,34.6
2016-05-14T00:30:00Z,0000380,00000600,0000.18,0000.63,0000.74,0000.69,-000.08,0000.35,0000.06,0000.05,0000.11,26.1,03.9,0671.9,34.6
2016-05-14T00:31:00Z,0000380,00000600,0000.50,0000.82,0000.48,0000.17,-000.09,0000.03,0000.05,0000.04,0000.00,26.1,03.9,0671.9,34.6
2016-05-14T00:32:00Z,0000380,00000600,0000.74,0000.66,0000.48,-000.09,0000.14,0000.05,0000.01,0000.14,-000.25,26.0,03.9,0671.9,34.6
2016-05-14T00:33:00Z,0000380,00000600,0001.59,0000.96,0001.21,0000.55,0000.19,0000.17,0000.20,0000.02,0000.45,26.1,03.9,0671.9,34.6
2016-05-14T00:34:00Z,0000380,00000600,0001.29,0000.91,0000.54,0000.28,-000.11,0000.08,0000.12,0000.32,-000.01,26.0,03.9,0671.9,34.6
2016-05-14T00:35:00Z,0000380,00000600,0001.18,0000.44,0000.72,0000.79,0000.19,0000.25,0000.26,-000.11,0000.01,26.0,03.9,0671.9,34.6
2016-05-14T00:36:00Z,0000380,00000600,0001.51,0000.52,0000.46,0000.66,-000.06,0000.05,0000.10,0000.27,0000.02,26.0,03.9,0671.9,34.6
2016-05-14T00:37:00Z,0000380,00000600,0000.54,0000.65,0000.76,0000.58,-000.08,0000.08,0000.11,0000.01,0000.09,26.0,03.9,0671.9,34.6
2016-05-14T00:38:00Z,0000380,00000600,0000.27,0000.52,0000.77,0000.72,-000.27,0000.33,0000.12,0000.09,0000.22,26.0,03.9,0672.0,34.6
2016-05-14T00:39:00Z,0000380,00000600,0001.44,0000.95,0000.47,-000.24,-000.14,-000.08,0000.07,0000.26,-000.14,26.0,03.9,0672.0,34.6
2016-05-14T00:40:00Z,0000380,00000600,0000.36,0000.82,0000.67,-000.22,-000.05,0000.17,0000.10,-000.00,0000.39,26.0,03.9,0672.0,34.6
2016-05-14T00:41:00Z,0000380,00000600,0001.02,0001.33,0000.58,-000.06,-000.14,0000.24,0000.16,0000.03,-000.18,26.0,04.0,0671.9,34.6
2016-05-14T00:42:00Z,0000380,00000600,0001.55,0000.94,0000.56,0000.28,-000.05,0000.31,0000.20,0000.21,0000.37,26.0,03.9,0672.0,34.6
2016-05-14T00:43:00Z,0000380,00000600,0000.75,0000.62,0000.64,0000.41,0000.05,0000.31,0000.04,-000.07,-000.01,26.0,03.9,0672.0,34.6
2016-05-14T00:44:00Z,0000380,00000600,0001.08,0001.11,0000.84,0000.16,-000.03,0000.19,0000.03,0000.24,0000.14,26.0,03.9,0671.9,34.6
2016-05-14T00:45:00Z,0000380,00000600,0000.96,0000.84,0000.33,-000.06,0000.42,0000.02,0000.20,0000.21,-000.06,26.0,03.9,0671.9,34.6
2016-05-14T00:46:00Z,0000380,00000600,0000.88,0000.95,0000.63,0000.05,0000.48,0000.24,-000.19,0000.21,0000.06,26.0,03.9,0671.9,34.6
2016-05-14T00:47:00Z,0000380,00000600,0001.32,0000.98,0000.56,0000.60,0000.44,0000.28,0000.30,-000.11,0000.11,26.0,04.0,0672.0,34.6
2016-05-14T00:48:00Z,0000380,00000600,0001.80,0000.59,0000.66,0000.24,0000.23,0000.11,0000.12,0000.22,-000.05,26.0,03.9,0672.0,34.6
2016-05-14T00:49:00Z,0000380,00000600,0001.48,0000.84,0000.66,0000.14,0000.16,-000.05,0000.28,0000.14,0000.37,26.0,03.9,0672.0,34.6
2016-05-14T00:50:00Z,0000380,00000600,0001.47,0000.57,0000.78,0000.36,0000.56,0000.24,0000.01,-000.04,0000.02,26.0,03.9,0671.9,34.6
2016-05-14T00:51:00Z,0000380,00000600,0001.99,0001.29,0000.49,0000.08,0000.33,0000.25,0000.09,0000.20,0000.02,26.0,04.0,0671.9,34.6
2016-05-14T00:52:00Z,0000380,00000600,0001.32,0001.07,0000.65,-000.06,0000.30,0000.17,0000.29,0000.19,-000.00,26.0,04.0,0671.9,34.6
2016-05-14T00:53:00Z,0000380,00000600,0001.90,0000.62,0001.26,0000.60,-000.09,0000.53,0000.22,0000.11,0000.34,26.0,03.9,0671.9,34.6
2016-05-14T00:54:00Z,0000380,00000600,0002.03,0001.36,0000.68,0000.49,0000.19,0000.08,0000.10,0000.13,-000.05,26.0,04.0,0671.9,34.6
2016-05-14T00:55:00Z,0000380,00000600,0001.40,0001.22,0000.67,0000.58,0000.56,0000.38,0000.04,0000.29,0000.26,26.0,04.0,0671.9,34.6
2016-05-14T00:56:00Z,0000380,00000600,0001.78,0002.24,0001.16,0000.50,-000.19,0000.44,0000.55,0000.08,-000.03,26.0,04.0,0671.9,34.6
2016-05-14T00:57:00Z,0000380,40000600,,,,,,,,,,,,0671.8,34.6
2016-05-14T00:58:00Z,0000380,60000600,,,,,,,,,,26.0,03.8,0671.1,34.6
2016-05-14T00:59:00Z,0000380,20000600,,,,,,,,,,26.0,03.9,0671.0,34.6
2016-05-14T01:00:00Z,0000380,20000600,,,,,,,,,,26.0,03.9,0671.0,34.6
2016-05-14T01:01:00Z,0000380,20000600,,,,,,,,,,26.0,03.9,0671.0,34.6
2016-05-14T01:02:00Z,0000380,20000600,,,,,,,,,,26.0,03.9,0671.0,34.6
2016-05-14T01:03:00Z,0000380,60000600,,,,,,,,,,26.0,03.9,0671.0,34.6
2016-05-14T01:04:00Z,0000380,40000600,0002.89,0001.54,0001.23,0000.25,-000.06,0000.44,-000.13,-000.06,0000.37,26.0,04.0,0671.8,34.6
2016-05-14T01:05:00Z,0000380,00000600,0002.40,0001.33,0000.80,0000.31,-000.11,0000.09,0000.32,0000.08,-000.19,26.0,04.0,0671.9,34.6
2016-05-14T01:06:00Z,0000380,00000600,0002.78,0001.22,0001.22,0000.11,0000.31,-000.24,0000.17,0000.18,0000.30,26.1,04.0,0671.9,34.6
2016-05-14T01:07:00Z,0000380,00000600,0002.60,0001.36,0001.07,0000.17,0000.20,0000.14,0000.14,0000.34,0000.08,26.1,04.0,0671.9,34.6
2016-05-14T01:08:00Z,0000380,00000600,0002.53,0002.00,0001.20,0000.17,0000.09,0000.20,0000.20,0000.08,-000.25,26.1,04.0,0671.9,34.6
2016-05-14T01:09:00Z,0000380,00000600,0002.80,0001.18,0001.42,0000.06,0000.33,0000.28,-000.01,0000.14,0000.55,26.1,04.0,0671.9,34.6
2016-05-14T01:10:00Z,0000380,00000600,0003.20,0001.73,0001.14,-000.13,0000.27,0000.11,0000.23,0000.16,0000.27,26.1,04.0,0671.9,34.6
2016-05-14T01:11:00Z,0000380,00000600,0002.93,0001.83,0001.02,-000.47,0000.49,0000.17,0000.25,0000.19,-000.05,26.2,03.9,0671.9,34.6
2016-05-14T01:12:00Z,0000380,00000600,0002.61,0002.08,0001.04,0000.08,0000.19,0000.17,0000.22,0000.36,-000.06,26.2,03.9,0671.9,34.6
2016-05-14T01:13:00Z,0000380,00000600,0002.55,0001.04,0000.90,0000.00,0000.06,-000.08,0000.09,-000.01,0000.10,26.2,03.9,0671.9,34.6
2016-05-14T01:14:00Z,0000380,00000600,0002.81,0001.48,0000.55,-000.33,0000.45,-000.19,0000.22,0000.09,0000.21,26.2,03.9,0671.9,34.6
2016-05-14T01:15:00Z,0000380,00000600,0001.75,0001.25,0001.44,-000.36,0000.31,0000.24,0000.09,0000.21,0000.31,26.2,03.9,0671.9,34.7
2016-05-14T01:16:00Z,0000380,00000600,0002.01,0001.44,0000.84,0000.14,0000.34,-000.06,0000.18,0000.11,-000.00,26.2,03.9,0671.9,34.7
2016-05-14T01:17:00Z,0000380,00000600,0002.82,0001.61,0000.89,-000.25,-000.45,-000.13,0000.40,0000.43,-000.02,26.2,03.9,0671.9,34.7
2016-05-14T01:18:00Z,0000380,00000600,0002.82,0001.40,0000.78,-000.14,0000.02,-000.09,0000.12,-000.09,0000.39,26.2,03.9,0671.9,34.7
2016-05-14T01:19:00Z,0000380,00010600,0002.15,0001.10,0001.15,-000.14,0000.44,0000.24,0000.11,0000.22,0000.16,26.2,03.9,0671.9,34.7
2016-05-14T01:20:00Z,0000380,00000600,0001.55,0001.61,0001.13,-000.20,-000.20,0000.00,0000.37,0000.04,0000.11,26.2,03.8,0671.9,34.7
2016-05-14T01:21:00Z,0000380,00000600,0002.86,0001.13,0001.20,-000.11,0000.25,0000.27,0000.03,0000.21,0000.07,26.2,03.9,0671.9,34.7
2016-05-14T01:22:00Z,0000380,00000600,0002.99,0001.26,0001.49,0000.91,0000.13,0000.28,0000.35,0000.23,0000.01,26.2,03.8,0671.9,34.7
2016-05-14T01:23:00Z,0000380,00000600,0001.86,0000.82,0001.09,0000.60,0000.55,0000.38,0000.16,0000.16,0000.05,26.2,03.8,0671.9,34.7
2016-05-14T01:24:00Z,0000380,00000600,0001.81,0000.79,0001.47,0000.63,-000.02,0000.47,0000.00,0000.09,0000.19,26.2,03.8,0671.9,34.7
2016-05-14T01:25:00Z,0000380,00000600,0001.64,0001.23,0001.23,0000.02,-000.09,0000.27,0000.44,0000.33,0000.31,26.2,03.8,0671.9,34.7
2016-05-14T01:26:00Z,0000380,00000600,0002.97,0001.42,0001.51,-000.27,-000.03,0000.11,0000.23,0000.26,-000.01,26.2,03.8,0671.9,34.7
2016-05-14T01:27:00Z,0000380,00000600,0002.45,0001.07,0001.23,0000.09,-000.14,0000.20,0000.13,0000.24,0000.00,26.2,03.8,0671.9,34.7
2016-05-14T01:28:00Z,0000380,00000600,0002.40,0001.71,0001.25,-000.24,-000.22,0000.31,0000.35,0000.08,0000.37,26.2,03.8,0671.9,34.7
2016-05-14T01:29:00Z,0000380,00000600,0002.64,0001.68,0001.91,0000.30,-000.11,0000.31,-000.17,-000.06,-000.07,26.2,03.8,0671.9,34.7
2016-05-14T01:30:00Z,0000380,00000600,0003.21,0002.10,0001.12,0000.14,0000.28,0000.03,0000.21,0000.32,-000.18,26.2,03.8,0671.9,34.7
2016-05-14T01:31:00Z,0000380,00000600,0003.00,0001.65,0001.33,-000.11,0000.23,-000.03,0000.50,0000.35,0000.56,26.2,03.8,0671.9,34.7
2016-05-14T01:32:00Z,0000380,00000600,0003.14,0001.80,0001.10,-000.05,0000.14,0000.31,0000.20,0000.19,0000.17,26.2,03.8,0671.9,34.7
2016-05-14T01:33:00Z,0000380,00000600,0003.28,0001.49,0001.97,0000.00,0000.08,0000.28,0000.16,0000.00,0000.21,26.3,03.8,0671.9,34.7
2016-05-14T01:34:00Z,0000380,00000600,0004.21,0002.30,0001.34,0000.35,-000.13,0000.20,0000.20,0000.33,-000.19,26.2,03.7,0671.9,34.7
2016-05-14T01:35:00Z,0000380,00000600,0003.85,0001.71,0001.40,0000.24,0000.20,0000.06,0000.10,0000.16,0000.61,26.2,03.8,0671.9,34.7
2016-05-14T01:36:00Z,0000380,00000600,0003.25,0002.18,0001.61,-000.24,0000.19,0000.22,0000.28,0000.31,0000.22,26.3,03.8,0671.9,34.7
2016-05-14T01:37:00Z,0000380,00000600,0003.62,0001.99,0001.69,0000.44,0000.45,0000.11,0000.17,0000.10,0000.12,26.3,03.8,0671.8,34.7
2016-05-14T01:38:00Z,0000380,00000600,0003.42,0002.66,0001.89,0000.28,-000.05,0000.44,0000.44,0000.19,0000.22,26.3,03.7,0671.8,34.7
2016-05-14T01:39:00Z,0000380,00000600,0003.45,0002.24,0001.92,-000.05,0000.17,0000.20,0000.21,0000.50,-000.08,26.3,03.8,0671.8,34.7
2016-05-14T01:40:00Z,0000380,00000600,0004.81,0002.29,0001.57,0000.55,0000.25,0000.13,0000.36,0000.06,0000.29,26.3,03.8,0671.8,34.7
2016-05-14T01:41:00Z,0000380,00000600,0004.55,0002.65,0001.68,0000.19,0000.20,0000.00,0000.18,0000.34,0000.36,26.3,03.7,0671.8,34.7
2016-05-14T01:42:00Z,0000380,00000600,0004.80,0002.97,0002.07,0000.05,0000.34,0000.35,0000.35,0000.22,0000.22,26.3,03.7,0671.8,34.7
2016-05-14T01:43:00Z,0000380,00000600,0004.40,0003.16,0002.15,0001.08,0000.47,0000.33,0000.32,0000.25,0000.24,26.3,03.7,0671.8,34.7
2016-05-14T01:44:00Z,0000380,00000600,0004.54,0002.68,0001.83,0000.33,0000.16,0000.24,0000.55,0000.36,-000.12,26.3,03.6,0671.9,34.7
2016-05-14T01:45:00Z,0000380,00000600,0004.69,0002.69,0002.33,0000.38,0000.36,0000.28,0000.28,0000.37,0000.42,26.3,03.6,0671.9,34.7
2016-05-14T01:46:00Z,0000380,00000600,0004.57,0003.04,0001.49,0000.09,0000.09,0000.31,0000.31,0000.23,0000.20,26.3,03.6,0671.9,34.7
2016-05-14T01:47:00Z,0000380,00000600,0004.08,0002.66,0001.93,0000.58,0000.16,0000.52,0000.15,0000.02,-000.26,26.2,03.6,0671.9,34.7
2016-05-14T01:48:00Z,0000380,00000600,0005.05,0002.70,0002.20,0000.11,0000.66,0000.38,0000.39,0000.48,0000.18,26.3,03.6,0671.9,34.7
2016-05-14T01:49:00Z,0000380,00000600,0004.76,0002.99,0001.36,0000.55,0000.14,0000.33,0000.46,0000.34,0000.63,26.3,03.6,0671.9,34.7
2016-05-14T01:50:00Z,0000380,00000600,0005.55,0002.59,0001.55,0000.90,0000.28,0000.30,0000.22,0000.32,0000.21,26.3,03.6,0671.9,34.7
2016-05-14T01:51:00Z,0000380,00000600,0004.20,0002.54,0002.22,0000.46,0000.06,0000.39,0000.48,0000.20,0000.12,26.3,03.5,0671.9,34.7
2016-05-14T01:52:00Z,0000380,00000600,0004.36,0002.68,0001.76,0000.55,0000.11,0000.20,0000.25,0000.21,0000.22,26.3,03.6,0671.9,34.7
2016-05-14T01:53:00Z,0000380,00000600,0004.19,0003.21,0001.87,0000.22,0000.11,0000.03,0000.13,0000.39,0000.08,26.2,03.6,0671.9,34.7
2016-05-14T01:54:00Z,0000380,00000600,0005.23,0002.76,0002.31,0000.27,-000.08,0000.35,0000.35,0000.32,0000.13,26.3,03.5,0671.9,34.7
2016-05-14T01:55:00Z,0000380,00000600,0004.95,0003.05,0001.36,0000.25,0000.00,-000.11,0000.51,0000.23,0000.67,26.3,03.6,0671.9,34.7
2016-05-14T01:56:00Z,0000380,00000600,0003.81,0003.55,0001.61,-000.09,0000.33,0000.17,0000.14,0000.25,-000.10,26.3,03.6,0671.9,34.7
2016-05-14T01:57:00Z,0000380,40000600,,,,,,,,,,,,0671.8,34.7
2016-05-14T01:58:00Z,0000380,60000600,,,,,,,,,,26.2,03.7,0671.0,34.7
2016-05-14T01:59:00Z,0000380,20000600,,,,,,,,,,26.2,03.6,0671.0,34.7
2016-05-14T02:00:00Z,0000380,20000600,,,,,,,,,,26.2,03.6,0671.0,34.7
2016-05-14T02:01:00Z,0000380,20000600,,,,,,,,,,26.2,03.6,0671.0,34.7
2016-05-14T02:02:00Z,0000380,20000600,,,,,,,,,,26.2,03.6,0671.0,34.7
2016-05-14T02:03:00Z,0000380,60000600,,,,,,,,,,26.2,03.6,0671.0,34.7
2016-05-14T02:04:00Z,0000380,40000600,0003.94,0002.25,0001.87,-000.17,0000.30,-000.16,0000.31,0000.49,0000.16,26.2,03.6,0671.7,34.7
2016-05-14T02:05:00Z,0000380,00000600,0004.20,0002.63,0001.64,-000.09,0000.22,-000.25,0000.32,0000.23,0000.06,26.2,03.6,0671.8,34.7
2016-05-14T02:06:00Z,0000380,00000600,0004.33,0003.06,0002.18,0000.30,0000.05,-000.33,0000.51,0000.22,0000.53,26.2,03.6,0671.8,34.7
2016-05-14T02:07:00Z,0000380,00000600,0004.93,0003.14,0001.54,0000.82,0000.34,-000.30,0000.37,0000.26,0000.10,26.2,03.6,0671.7,34.7
2016-05-14T02:08:00Z,0000380,00000600,0004.58,0003.68,0001.73,0000.83,0000.38,0000.25,0000.16,0000.22,0000.32,26.2,03.6,0671.7,34.7
2016-05-14T02:09:00Z,0000380,00000600,0004.81,0003.17,0001.52,0000.66,0000.45,0000.02,0000.26,0000.45,0000.40,26.2,03.7,0671.7,34.7
2016-05-14T02:10:00Z,0000380,00000600,0004.83,0002.51,0001.35,0000.99,0000.34,-000.13,0000.15,0000.05,0000.24,26.2,03.6,0671.7,34.7
2016-05-14T02:11:00Z,0000380,00000600,0003.96,0002.73,0001.88,0001.08,0000.61,0000.33,0000.65,0000.53,-000.09,26.2,03.6,0671.7,34.7
2016-05-14T02:12:00Z,0000380,00000600,0004.26,0002.76,0001.52,0000.44,0000.78,-000.35,0000.19,0000.23,0000.26,26.2,03.6,0671.6,34.7
2016-05-14T02:13:00Z,0000380,00000600,0004.81,0002.74,0001.91,0000.33,0000.53,0000.24,0000.44,0000.42,0000.32,26.2,03.7,0671.7,34.7
2016-05-14T02:14:00Z,0000380,00000600,0004.60,0002.86,0001.61,0000.50,0000.56,0000.11,0000.24,0000.10,0000.28,26.2,03.7,0671.6,34.7
2016-05-14T02:15:00Z,0000380,00000600,0004.24,0002.78,0001.43,0000.82,-000.08,-000.17,0000.42,0000.38,0000.09,26.2,03.6,0671.6,34.6
2016-05-14T02:16:00Z,0000380,00000600,0004.64,0002.09,0001.93,0001.10,0000.06,-000.08,0000.40,0000.17,0000.46,26.2,03.6,0671.6,34.6
2016-05-14T02:17:00Z,0000380,00000600,0004.65,0003.93,0001.51,0000.96,0000.38,0000.42,0000.12,0000.50,-000.18,26.2,03.7,0671.6,34.6
2016-05-14T02:18:00Z,0000380,00000600,0004.42,0002.38,0002.09,0000.82,0000.25,-000.09,0000.29,0000.31,0000.13,26.2,03.6,0671.6,34.6
2016-05-14T02:19:00Z,0000380,00000600,0004.80,0003.25,0001.59,0001.40,0000.34,0000.39,0000.60,0000.48,0000.52,26.2,03.7,0671.6,34.6
2016-05-14T02:20:00Z,0000380,00000600,0004.03,0003.03,0001.76,0000.52,0000.22,0000.11,0000.10,0000.17,0000.30,26.2,03.6,0671.6,34.6
2016-05-14T02:21:00Z,0000380,00000600,0005.17,0002.80,0001.53,0000.58,0000.31,0000.08,0000.49,0000.40,0000.25,26.2,03.7,0671.6,34.6
2016-05-14T02:22:00Z,0000380,00000600,0005.06,0003.45,0001.53,0000.58,0000.34,-000.25,0000.28,0000.19,0000.36,26.2,03.6,0671.6,34.6
2016-05-14T02:23:00Z,0000380,00000600,0006.05,0003.31,0001.79,0000.72,0000.78,-000.11,0000.47,0000.36,0000.16,26.2,03.6,0671.6,34.6
2016-05-14T02:24:00Z,0000380,00000600,0005.78,0002.90,0001.66,0000.57,0000.52,0000.20,0000.38,0000.37,-000.05,26.2,03.6,0671.6,34.6
2016-05-14T02:25:00Z,0000380,00000600,0005.74,0003.57,0002.05,0000.00,0000.31,0000.14,0000.41,0000.20,0000.62,26.2,03.6,0671.6,34.6
2016-05-14T02:26:00Z,0000380,00000600,0004.82,0003.16,0002.09,0000.99,0000.45,0000.28,0000.27,0000.44,0000.13,26.2,03.7,0671.6,34.6
2016-05-14T02:27:00Z,0000380,00000600,0004.71,0003.75,0001.69,0001.53,0000.61,-000.03,0000.47,0000.33,0000.29,26.2,03.6,0671.5,34.6
2016-05-14T02:28:00Z,0000380,00000600,0004.82,0003.64,0002.07,0000.16,0000.03,0000.08,0000.31,0000.35,0000.52,26.2,03.7,0671.5,34.6
2016-05-14T02:29:00Z,0000380,00000600,0005.32,0003.70,0001.88,0000.49,0000.39,0000.00,0000.34,0000.19,0000.07,26.2,03.6,0671.5,34.6
2016-05-14T02:30:00Z,0000380,00000600,0005.03,0003.63,0001.86,0000.33,0000.52,0000.27,0000.52,0000.40,0000.20,26.2,03.7,0671.5,34.6
2016-05-14T02:31:00Z,0000380,00000600,0005.00,0003.51,0002.14,0000.42,0000.13,0000.06,0000.29,0000.22,0000.42,26.2,03.7,0671.5,34.6
2016-05-14T02:32:00Z,0000380,00000600,0004.97,0003.40,0002.19,0000.69,0000.11,0000.19,0000.21,0000.38,0000.17,26.2,03.7,0671.5,34.6
2016-05-14T02:33:00Z,0000380,00000600,0005.27,0003.55,0001.93,0000.11,0000.34,0000.11,0000.51,0000.47,0000.21,26.1,03.7,0671.5,34.6
2016-05-14T02:34:00Z,0000380,00000600,0004.73,0003.45,0002.05,0000.60,0000.38,-000.09,0000.26,0000.30,0000.19,26.1,03.7,0671.5,34.6
2016-05-14T02:35:00Z,0000380,00000600,0005.29,0002.96,0002.17,0000.46,0000.20,0000.27,0000.65,0000.27,0000.18,26.1,03.7,0671.4,34.6
2016-05-14T02:36:00Z,0000380,00000600,0005.44,0003.75,0002.17,0000.30,0000.85,0000.16,0000.24,0000.54,0000.46,26.1,03.7,0671.5,34.6
2016-05-14T02:37:00Z,0000380,00000600,0005.26,0002.65,0002.08,-000.22,0000.39,-000.08,0000.45,0000.21,0000.12,26.1,03.6,0671.5,34.6
2016-05-14T02:38:00Z,0000380,00000600,0005.62,0003.08,0001.65,0000.88,0000.14,0000.27,0000.57,0000.32,0000.14,26.1,03.8,0671.5,34.6
2016-05-14T02:39:00Z,0000380,00000600,0005.33,0002.98,0002.11,0000.75,0000.39,0000.11,0000.30,0000.46,0000.47,26.1,03.7,0671.5,34.6
2016-05-14T02:40:00Z,0000380,00000600,0005.31,0003.42,0001.96,0000.88,0000.49,-000.13,0000.29,0000.41,0000.31,26.1,03.7,0671.5,34.6
2016-05-14T02:41:00Z,0000380,00010600,0005.32,0004.17,0001.62,0000.90,0000.23,0000.19,0000.38,0000.31,0000.38,26.1,03.7,0671.5,34.6
2016-05-14T02:42:00Z,0000380,00000600,0006.11,0003.26,0002.19,0000.38,0000.55,0000.02,0000.20,0000.40,0000.10,26.1,03.7,0671.5,34.6
2016-05-14T02:43:00Z,0000380,00000600,0005.37,0003.59,0002.14,0000.93,-000.05,0000.08,0000.55,0000.15,0000.35,26.1,03.7,0671.5,34.6
2016-05-14T02:44:00Z,0000380,00000600,0004.59,0004.16,0002.23,0000.57,0000.70,0000.31,0000.37,0000.56,0000.34,26.1,03.6,0671.5,34.6
2016-05-14T02:45:00Z,0000380,00000600,0005.63,0004.09,0002.23,0000.99,0000.34,-000.03,0000.35,0000.34,0000.36,26.1,03.7,0671.5,34.7
2016-05-14T02:46:00Z,0000380,00000600,0005.84,0003.38,0002.45,0000.68,0000.27,0000.69,0000.47,0000.34,0000.33,26.2,03.7,0671.4,34.7
2016-05-14T02:47:00Z,0000380,00000600,0005.69,0003.24,0002.32,0000.53,0000.39,0000.39,0000.41,0000.15,0000.25,26.2,03.7,0671.4,34.7
2016-05-14T02:48:00Z,0000380,00000600,0004.87,0003.92,0002.33,0000.96,0000.38,-000.05,0000.35,0000.51,0000.16,26.2,03.7,0671.4,34.7
2016-05-14T02:49:00Z,0000380,00000600,0005.82,0003.62,0001.60,0000.33,0000.49,-000.06,0000.55,0000.44,0000.32,26.1,03.7,0671.4,34.7
2016-05-14T02:50:00Z,0000380,00000600,0005.20,0004.43,0002.33,0001.62,0000.50,0000.20,0000.16,0000.21,0000.25,26.1,03.6,0671.4,34.7
2016-05-14T02:51:00Z,0000380,00000600,0006.27,0003.74,0002.29,0000.42,0000.45,0000.09,0000.72,0000.42,0000.20,26.1,03.7,0671.3,34.7
2016-05-14T02:52:00Z,0000380,00000600,0005.61,0003.08,0002.01,0001.10,0000.11,-000.05,0000.27,0000.30,0000.30,26.1,03.7,0671.3,34.7
2016-05-14T02:53:00Z,0000380,00000600,0005.84,0003.44,0001.58,0000.88,0000.34,-000.08,0000.52,0000.38,0000.40,26.1,03.6,0671.3,34.7
2016-05-14T02:54:00Z,0000380,00000600,0005.33,0003.55,0002.13,0000.75,0000.97,0000.06,0000.45,0000.37,0000.36,26.1,03.7,0671.3,34.7
2016-05-14T02:55:00Z,0000380,00000600,0005.79,0003.73,0002.19,0000.28,0000.45,0000.14,0000.41,0000.38,0000.14,26.0,03.7,0671.3,34.7
2016-05-14T02:56:00Z,0000380,00000600,0005.70,0004.17,0002.52,0000.13,0000.58,-000.03,0000.26,0000.36,0000.31,26.0,03.8,0671.3,34.7
2016-05-14T02:57:00Z,0000380,40000600,,,,,,,,,,,,0671.4,34.7
2016-05-14T02:58:00Z,0000380,60000600,,,,,,,,,,26.0,03.6,0670.4,34.7
2016-05-14T02:59:00Z,0000380,20000600,,,,,,,,,,26.0,03.6,0670.4,34.7
2016-05-14T03:00:00Z,0000380,20000600,,,,,,,,,,26.0,03.6,0670.4,34.6
2016-05-14T03:01:00Z,0000380,20000600,,,,,,,,,,26.0,03.6,0670.4,34.6
2016-05-14T03:02:00Z,0000380,20000600,,,,,,,,,,26.0,03.6,0670.4,34.6
2016-05-14T03:03:00Z,0000380,60000600,,,,,,,,,,26.0,03.6,0670.4,34.6
2016-05-14T03:04:00Z,0000380,40000600,0005.12,0004.29,0002.32,0000.80,0000.11,0000.69,0000.40,0000.38,0000.40,26.1,03.8,0671.2,34.6
2016-05-14T03:05:00Z,0000380,00000600,0005.09,0003.94,0002.18,0000.42,0000.69,0000.55,0000.37,0000.31,0000.23,26.1,03.7,0671.2,34.6
2016-05-14T03:06:00Z,0000380,00000600,0005.06,0003.35,0002.55,0001.16,0000.13,0000.77,0000.45,0000.49,0000.45,26.1,03.7,0671.2,34.6
2016-05-14T03:07:00Z,0000380,00000600,0006.77,0004.12,0002.02,0001.09,0000.06,0000.39,0000.46,0000.08,0000.29,26.1,03.7,0671.2,34.6
2016-05-14T03:08:00Z,0000380,00000600,0005.50,0003.90,0001.83,0000.57,0000.05,0000.27,0000.41,0000.54,0000.15,26.1,03.7,0671.2,34.6
2016-05-14T03:09:00Z,0000380,00000600,0005.14,0004.28,0002.03,0000.94,0000.28,0000.39,0000.38,0000.44,0000.53,26.1,03.8,0671.1,34.6
2016-05-14T03:10:00Z,0000380,00000600,0006.19,0003.98,0002.20,0000.82,0000.11,0000.44,0000.63,0000.33,0000.14,26.1,03.8,0671.2,34.6
2016-05-14T03:11:00Z,0000380,00000600,0005.28,0003.47,0002.34,0000.74,0000.56,0000.14,0000.33,0000.28,0000.19,26.1,03.7,0671.1,34.6
2016-05-14T03:12:00Z,0000380,00000600,0006.13,0004.51,0002.37,0000.69,0000.03,0000.46,0000.61,0000.23,0000.16,26.0,03.8,0671.1,34.6